Location: Pallagorio
(39.3000°N, 16.9000°E)
Time: 21:47:35
(UTC+00:00)

Cosmos 1553 Rocket - Pass Details

Date: 24 January 2021
Orbit: 941 x 1008 km, 82.9° (Epoch: 02 March)

Event Time Altitude Azimuth Distance (km) Brightness Sun altitude
Rises 17:40:36 0° 357° (N) 3,745 7.0 -18.7°
Reaches altitude 10° 17:43:15 10° 3° (N) 2,787 6.3 -19.2°
Maximum altitude 17:49:29 52° 79° (E) 1,223 4.1 -20.4°
Drops below altitude 10° 17:55:36 10° 155° (SSE) 2,737 6.2 -21.6°
Sets 17:58:09 0° 160° (SSE) 3,671 6.9 -22.1°
